| time (UTC) | temp F | wind direction | speed MPH | gust MPH | rain 1hr in | rain 24hr in | rain mn in | humidity % | barometer mb |
| 20260903081646 | 63 | 320 | 1.0 | 3.0 | 0.00 | 0.02 | 0.00 | 75 | 1026.6 |
| 20260903080916 | 62 | 320 | 1.0 | 3.0 | 0.00 | 0.02 | 0.00 | 78 | 1026.5 |
| 20260903080424 | 61 | 320 | 0.0 | 2.0 | 0.00 | 0.02 | 0.00 | 75 | 1026.5 |
| 20260903075915 | 61 | 320 | 0.0 | 2.0 | 0.00 | 0.02 | 0.00 | 75 | 1026.6 |
| 20260903075416 | 61 | 320 | 1.0 | 4.0 | 0.00 | 0.02 | 0.00 | 78 | 1026.6 |
| 20260903074916 | 60 | 320 | 1.0 | 4.0 | 0.00 | 0.02 | 0.00 | 81 | 1026.6 |
| 20260903074414 | 60 | 288 | 1.0 | 3.0 | 0.00 | 0.02 | 0.00 | 85 | 1026.6 |
| 20260903073913 | 59 | 288 | 0.0 | 2.0 | 0.00 | 0.02 | 0.00 | 83 | 1026.6 |
| 20260903073413 | 58 | 288 | 0.0 | 2.0 | 0.00 | 0.02 | 0.00 | 86 | 1026.6 |
| 20260903072910 | 58 | 237 | 0.0 | 0.0 | 0.00 | 0.02 | 0.00 | 88 | 1026.6 |
| 20260903072409 | 57 | 237 | 0.0 | 0.0 | 0.00 | 0.02 | 0.00 | 91 | 1026.6 |
| 20260903071909 | 56 | 237 | 0.0 | 0.0 | 0.00 | 0.02 | 0.00 | 94 | 1026.6 |
| 20260903071408 | 55 | 237 | 0.0 | 0.0 | 0.00 | 0.02 | 0.00 | 94 | 1026.6 |
| 20260903070908 | 55 | 237 | 0.0 | 0.0 | 0.00 | 0.02 | 0.00 | 95 | 1026.6 |
| 20260903070415 | 55 | 237 | 0.0 | 0.0 | 0.00 | 0.02 | 0.00 | 96 | 1026.5 |
| 20260903065903 | 54 | 237 | 0.0 | 0.0 | 0.00 | 0.02 | 0.00 | 97 | 1026.5 |
| 20260903065402 | 54 | 237 | 0.0 | 0.0 | 0.00 | 0.02 | 0.00 | 98 | 1026.5 |
| 20260903065122 | 53 | 237 | 0.0 | 0.0 | 0.00 | 0.02 | 0.00 | 98 | 1026.5 |
| 20260903064353 | 53 | 237 | 0.0 | 0.0 | 0.00 | 0.02 | 0.00 | 99 | 1026.6 |
| 20260903063846 | 51 | 237 | 0.0 | 0.0 | 0.00 | 0.02 | 0.00 | 99 | 1026.6 |
| 20260903063614 | 51 | 237 | 0.0 | 0.0 | 0.00 | 0.02 | 0.00 | 98 | 1026.6 |
| 20260903062844 | 51 | 237 | 0.0 | 0.0 | 0.00 | 0.02 | 0.00 | 98 | 1026.6 |
| 20260903062342 | 51 | 237 | 0.0 | 0.0 | 0.00 | 0.02 | 0.00 | 98 | 1026.6 |
| 20260903061839 | 51 | 237 | 0.0 | 0.0 | 0.00 | 0.02 | 0.00 | 98 | 1026.6 |
| 20260903061337 | 50 | 237 | 0.0 | 0.0 | 0.00 | 0.02 | 0.00 | 98 | 1026.6 |
| 20260903060833 | 50 | 237 | 0.0 | 0.0 | 0.00 | 0.02 | 0.00 | 98 | 1026.6 |
| 20260903060335 | 50 | 237 | 0.0 | 0.0 | 0.00 | 0.02 | 0.00 | 98 | 1026.6 |
| 20260903055831 | 50 | 237 | 0.0 | 0.0 | 0.00 | 0.02 | 0.00 | 98 | 1026.6 |
| 20260903055331 | 51 | 237 | 0.0 | 0.0 | 0.00 | 0.02 | 0.00 | 98 | 1026.5 |
| 20260903054829 | 51 | 237 | 0.0 | 0.0 | 0.00 | 0.02 | 0.00 | 98 | 1026.5 |
| 20260903054606 | 50 | 237 | 0.0 | 0.0 | 0.00 | 0.02 | 0.00 | 98 | 1026.6 |
| 20260903053829 | 50 | 237 | 0.0 | 0.0 | 0.00 | 0.02 | 0.00 | 98 | 1026.5 |
| 20260903053607 | 50 | 237 | 0.0 | 0.0 | 0.00 | 0.02 | 0.00 | 98 | 1026.5 |
| 20260903052831 | 50 | 237 | 0.0 | 0.0 | 0.00 | 0.02 | 0.00 | 98 | 1026.5 |
| 20260903052329 | 50 | 237 | 0.0 | 0.0 | 0.00 | 0.02 | 0.00 | 98 | 1026.4 |
| 20260903051830 | 50 | 237 | 0.0 | 0.0 | 0.00 | 0.02 | 0.00 | 98 | 1026.4 |
| 20260903051329 | 50 | 237 | 0.0 | 0.0 | 0.00 | 0.02 | 0.00 | 98 | 1026.3 |
| 20260903050829 | 49 | 237 | 0.0 | 0.0 | 0.00 | 0.02 | 0.00 | 98 | 1026.3 |
| 20260903050557 | 50 | 237 | 0.0 | 0.0 | 0.00 | 0.02 | 0.00 | 98 | 1026.3 |
| 20260903050122 | 50 | 237 | 0.0 | 0.0 | 0.00 | 0.02 | 0.00 | 98 | 1026.4 |
| 20260903045322 | 50 | 237 | 0.0 | 0.0 | 0.00 | 0.02 | 0.00 | 98 | 1026.3 |
| 20260903044815 | 49 | 237 | 0.0 | 0.0 | 0.00 | 0.02 | 0.00 | 98 | 1026.2 |
| 20260903044309 | 49 | 237 | 0.0 | 0.0 | 0.00 | 0.02 | 0.00 | 98 | 1026.2 |
| 20260903043809 | 49 | 237 | 0.0 | 0.0 | 0.00 | 0.02 | 0.00 | 97 | 1026.2 |
| 20260903043530 | 50 | 237 | 0.0 | 0.0 | 0.00 | 0.02 | 0.00 | 98 | 1026.2 |
| 20260903042810 | 50 | 237 | 0.0 | 0.0 | 0.00 | 0.02 | 0.00 | 98 | 1026.0 |
| 20260903042306 | 50 | 237 | 0.0 | 0.0 | 0.00 | 0.02 | 0.00 | 98 | 1026.0 |
| 20260903041801 | 50 | 237 | 0.0 | 0.0 | 0.00 | 0.02 | 0.00 | 98 | 1026.0 |
| 20260903041301 | 50 | 237 | 0.0 | 0.0 | 0.00 | 0.02 | 0.00 | 98 | 1026.2 |
| 20260903040800 | 51 | 237 | 0.0 | 0.0 | 0.00 | 0.02 | 0.00 | 98 | 1026.2 |
| 20260903040259 | 50 | 237 | 0.0 | 0.0 | 0.00 | 0.02 | 0.00 | 98 | 1026.2 |
| 20260903035759 | 51 | 237 | 0.0 | 0.0 | 0.00 | 0.02 | 0.00 | 98 | 1026.3 |
| 20260903035257 | 50 | 237 | 0.0 | 0.0 | 0.00 | 0.02 | 0.00 | 98 | 1026.2 |
| 20260903034757 | 51 | 237 | 0.0 | 0.0 | 0.00 | 0.02 | 0.00 | 98 | 1026.2 |
| 20260903034257 | 51 | 237 | 0.0 | 0.0 | 0.00 | 0.02 | 0.00 | 98 | 1026.3 |
| 20260903033757 | 51 | 237 | 0.0 | 0.0 | 0.00 | 0.02 | 0.00 | 98 | 1026.2 |
| 20260903033257 | 51 | 237 | 0.0 | 0.0 | 0.00 | 0.02 | 0.00 | 98 | 1026.3 |
| 20260903032756 | 51 | 237 | 0.0 | 0.0 | 0.00 | 0.02 | 0.00 | 98 | 1026.3 |
| 20260903032255 | 51 | 237 | 0.0 | 0.0 | 0.00 | 0.02 | 0.00 | 98 | 1026.3 |
| 20260903031755 | 51 | 237 | 0.0 | 0.0 | 0.00 | 0.02 | 0.00 | 98 | 1026.2 |
| 20260903031253 | 51 | 237 | 0.0 | 0.0 | 0.00 | 0.02 | 0.00 | 98 | 1026.2 |
| 20260903030753 | 51 | 237 | 0.0 | 0.0 | 0.00 | 0.02 | 0.00 | 98 | 1026.2 |
| 20260903030252 | 51 | 237 | 0.0 | 0.0 | 0.00 | 0.02 | 0.00 | 98 | 1026.2 |
| 20260903025753 | 51 | 237 | 0.0 | 0.0 | 0.00 | 0.02 | 0.00 | 98 | 1026.3 |
| 20260903025253 | 52 | 237 | 0.0 | 0.0 | 0.00 | 0.02 | 0.00 | 98 | 1026.2 |
| 20260903025021 | 51 | 237 | 0.0 | 0.0 | 0.00 | 0.02 | 0.00 | 98 | 1026.3 |
| 20260903024253 | 52 | 237 | 0.0 | 0.0 | 0.00 | 0.02 | 0.00 | 97 | 1026.3 |
| 20260903023753 | 53 | 237 | 0.0 | 0.0 | 0.00 | 0.02 | 0.00 | 98 | 1026.3 |
| 20260903023252 | 53 | 237 | 0.0 | 0.0 | 0.00 | 0.02 | 0.00 | 98 | 1026.2 |
| 20260903023016 | 53 | 237 | 0.0 | 0.0 | 0.00 | 0.02 | 0.00 | 98 | 1026.2 |
| 20260903022750 | 53 | 237 | 0.0 | 0.0 | 0.00 | 0.02 | 0.00 | 97 | 1026.0 |
| 20260903021753 | 53 | 237 | 0.0 | 0.0 | 0.00 | 0.02 | 0.00 | 98 | 1026.0 |
| 20260903021253 | 53 | 237 | 0.0 | 0.0 | 0.00 | 0.02 | 0.00 | 98 | 1026.0 |
| 20260903020752 | 53 | 237 | 0.0 | 0.0 | 0.00 | 0.02 | 0.00 | 98 | 1026.3 |
| 20260903020518 | 53 | 237 | 0.0 | 0.0 | 0.00 | 0.02 | 0.00 | 98 | 1026.2 |
| 20260903015750 | 54 | 237 | 0.0 | 0.0 | 0.00 | 0.02 | 0.00 | 98 | 1026.2 |
| 20260903015246 | 54 | 237 | 0.0 | 0.0 | 0.00 | 0.02 | 0.00 | 98 | 1026.0 |
| 20260903014746 | 54 | 237 | 0.0 | 0.0 | 0.00 | 0.02 | 0.00 | 98 | 1026.0 |
| 20260903014247 | 54 | 237 | 0.0 | 0.0 | 0.00 | 0.02 | 0.00 | 98 | 1026.0 |
| 20260903013745 | 54 | 237 | 0.0 | 0.0 | 0.00 | 0.02 | 0.00 | 98 | 1026.2 |
| 20260903013243 | 54 | 237 | 0.0 | 0.0 | 0.00 | 0.02 | 0.00 | 98 | 1026.3 |
| 20260903012741 | 54 | 237 | 0.0 | 0.0 | 0.00 | 0.02 | 0.00 | 98 | 1026.2 |
| 20260903012238 | 54 | 237 | 0.0 | 0.0 | 0.00 | 0.02 | 0.00 | 98 | 1026.2 |
| 20260903011737 | 54 | 330 | 0.0 | 0.0 | 0.00 | 0.02 | 0.00 | 98 | 1026.0 |
| 20260903011236 | 54 | 330 | 0.0 | 0.0 | 0.00 | 0.02 | 0.00 | 98 | 1025.9 |
| 20260903010737 | 54 | 330 | 0.0 | 0.0 | 0.00 | 0.02 | 0.00 | 98 | 1026.2 |
| 20260903010234 | 54 | 330 | 0.0 | 0.0 | 0.00 | 0.02 | 0.00 | 98 | 1026.2 |
| 20260903005734 | 54 | 330 | 0.0 | 0.0 | 0.00 | 0.02 | 0.00 | 98 | 1026.2 |
| 20260903005500 | 54 | 330 | 0.0 | 0.0 | 0.00 | 0.02 | 0.00 | 98 | 1026.0 |
| 20260903004734 | 54 | 330 | 0.0 | 0.0 | 0.00 | 0.02 | 0.00 | 98 | 1026.2 |
| 20260903004234 | 54 | 330 | 0.0 | 0.0 | 0.00 | 0.02 | 0.00 | 98 | 1026.2 |
| 20260903003953 | 54 | 330 | 0.0 | 0.0 | 0.00 | 0.02 | 0.00 | 98 | 1026.2 |
| 20260903003450 | 54 | 330 | 0.0 | 0.0 | 0.00 | 0.02 | 0.00 | 98 | 1026.2 |
| 20260903002729 | 54 | 330 | 0.0 | 0.0 | 0.00 | 0.02 | 0.00 | 98 | 1026.0 |
| 20260903002228 | 54 | 330 | 0.0 | 0.0 | 0.00 | 0.02 | 0.00 | 98 | 1026.0 |
| 20260903001729 | 54 | 330 | 0.0 | 0.0 | 0.00 | 0.02 | 0.00 | 98 | 1026.0 |
| 20260903001451 | 54 | 330 | 0.0 | 0.0 | 0.00 | 0.02 | 0.00 | 97 | 1026.0 |
| 20260903000727 | 54 | 330 | 0.0 | 0.0 | 0.00 | 0.02 | 0.00 | 97 | 1025.9 |
| 20260903000220 | 54 | 330 | 0.0 | 0.0 | 0.00 | 0.02 | 0.00 | 98 | 1026.0 |
| 20260902235713 | 54 | 330 | 0.0 | 0.0 | 0.00 | 0.02 | 0.00 | 97 | 1026.0 |
| 20260902235208 | 54 | 330 | 0.0 | 0.0 | 0.00 | 0.02 | 0.00 | 98 | 1026.2 |
| 20260902234702 | 54 | 330 | 0.0 | 0.0 | 0.00 | 0.02 | 0.00 | 97 | 1025.9 |
| 20260902234201 | 54 | 330 | 0.0 | 0.0 | 0.00 | 0.02 | 0.00 | 97 | 1026.0 |
| 20260902233702 | 54 | 330 | 0.0 | 0.0 | 0.00 | 0.02 | 0.00 | 97 | 1026.0 |
| 20260902233201 | 54 | 330 | 0.0 | 0.0 | 0.00 | 0.02 | 0.00 | 97 | 1025.9 |
| 20260902232926 | 54 | 330 | 0.0 | 0.0 | 0.00 | 0.02 | 0.00 | 97 | 1026.0 |
| 20260902232201 | 54 | 330 | 0.0 | 0.0 | 0.00 | 0.02 | 0.00 | 97 | 1026.0 |
| 20260902231704 | 54 | 330 | 0.0 | 0.0 | 0.00 | 0.02 | 0.00 | 97 | 1026.0 |
| 20260902231203 | 54 | 330 | 0.0 | 0.0 | 0.00 | 0.02 | 0.00 | 97 | 1026.2 |
| 20260902230700 | 54 | 330 | 0.0 | 0.0 | 0.00 | 0.02 | 0.00 | 97 | 1026.3 |
| 20260902230158 | 54 | 330 | 0.0 | 0.0 | 0.00 | 0.02 | 0.00 | 97 | 1026.2 |
| 20260902225656 | 55 | 330 | 0.0 | 0.0 | 0.00 | 0.02 | 0.00 | 97 | 1026.2 |
| 20260902225154 | 55 | 330 | 0.0 | 0.0 | 0.00 | 0.02 | 0.00 | 97 | 1026.2 |
| 20260902224652 | 55 | 330 | 0.0 | 1.0 | 0.00 | 0.02 | 0.00 | 97 | 1026.0 |
| 20260902224438 | 55 | 330 | 1.0 | 3.0 | 0.00 | 0.02 | 0.00 | 96 | 1026.0 |
| 20260902224150 | 55 | 330 | 1.0 | 2.0 | 0.00 | 0.02 | 0.00 | 96 | 1026.2 |
| 20260902223148 | 55 | 330 | 0.0 | 3.0 | 0.00 | 0.02 | 0.00 | 96 | 1026.0 |
| 20260902222650 | 55 | 330 | 0.0 | 1.0 | 0.00 | 0.02 | 0.00 | 96 | 1026.0 |
| 20260902222146 | 55 | 330 | 1.0 | 3.0 | 0.00 | 0.02 | 0.00 | 96 | 1026.0 |
| 20260902221909 | 55 | 330 | 1.0 | 3.0 | 0.00 | 0.02 | 0.00 | 95 | 1026.0 |
| 20260902221902 | 55 | 32 | 2.0 | 8.0 | 0.00 | 0.02 | 0.00 | 95 | 1025.9 |
| 20260902220913 | 55 | 174 | 3.0 | 8.0 | 0.00 | 0.02 | 0.00 | 95 | 1025.8 |
| 20260902220142 | 55 | 157 | 2.0 | 7.0 | 0.00 | 0.02 | 0.00 | 96 | 1025.8 |
| 20260902215910 | 55 | 162 | 1.0 | 4.0 | 0.00 | 0.02 | 0.02 | 96 | 1025.8 |
| 20260902215141 | 55 | 315 | 0.0 | 3.0 | 0.00 | 0.02 | 0.02 | 96 | 1025.8 |
| 20260902214911 | 55 | 315 | 1.0 | 7.0 | 0.00 | 0.02 | 0.02 | 96 | 1025.9 |
| 20260902214407 | 55 | 202 | 2.0 | 7.0 | 0.00 | 0.02 | 0.02 | 96 | 1025.8 |
| 20260902213637 | 55 | 160 | 2.0 | 5.0 | 0.00 | 0.02 | 0.02 | 96 | 1025.8 |
| 20260902213137 | 55 | 183 | 1.0 | 5.0 | 0.00 | 0.02 | 0.02 | 96 | 1025.9 |
| 20260902212901 | 55 | 159 | 1.0 | 4.0 | 0.00 | 0.02 | 0.02 | 96 | 1025.9 |
| 20260902212358 | 55 | 177 | 1.0 | 5.0 | 0.00 | 0.02 | 0.02 | 96 | 1025.9 |
| 20260902211631 | 55 | 165 | 2.0 | 5.0 | 0.00 | 0.02 | 0.02 | 97 | 1025.9 |
| 20260902211132 | 55 | 134 | 1.0 | 5.0 | 0.00 | 0.02 | 0.02 | 97 | 1025.9 |
| 20260902210632 | 55 | 179 | 0.0 | 3.0 | 0.01 | 0.02 | 0.02 | 97 | 1025.8 |
| 20260902210130 | 55 | 201 | 0.0 | 0.0 | 0.01 | 0.02 | 0.02 | 97 | 1025.9 |
| 20260902205630 | 55 | 201 | 0.0 | 0.0 | 0.02 | 0.02 | 0.02 | 97 | 1026.0 |
| 20260902205131 | 55 | 201 | 0.0 | 0.0 | 0.02 | 0.02 | 0.02 | 96 | 1025.9 |
| 20260902204631 | 55 | 201 | 0.0 | 0.0 | 0.02 | 0.02 | 0.02 | 96 | 1025.9 |
| 20260902204123 | 55 | 201 | 0.0 | 0.0 | 0.02 | 0.02 | 0.02 | 96 | 1025.9 |
| 20260902203618 | 55 | 201 | 0.0 | 0.0 | 0.02 | 0.02 | 0.02 | 95 | 1025.8 |
| 20260902203110 | 55 | 201 | 0.0 | 0.0 | 0.02 | 0.02 | 0.02 | 95 | 1025.8 |
| 20260902202610 | 56 | 201 | 0.0 | 3.0 | 0.02 | 0.02 | 0.02 | 94 | 1025.6 |
| 20260902202109 | 56 | 128 | 1.0 | 3.0 | 0.02 | 0.02 | 0.02 | 94 | 1025.7 |
| 20260902201607 | 56 | 119 | 3.0 | 10.0 | 0.02 | 0.02 | 0.02 | 94 | 1025.6 |
| 20260902201106 | 56 | 113 | 4.0 | 10.0 | 0.02 | 0.02 | 0.02 | 94 | 1025.7 |
| 20260902200830 | 56 | 163 | 3.0 | 9.0 | 0.02 | 0.02 | 0.02 | 94 | 1025.7 |
| 20260902195602 | 56 | 154 | 0.0 | 0.0 | 0.00 | 0.00 | 0.00 | 93 | 1026.2 |
| 20260902195326 | 56 | 154 | 0.0 | 0.0 | 0.00 | 0.00 | 0.00 | 93 | 1026.0 |
| 20260902194601 | 56 | 154 | 0.0 | 0.0 | 0.00 | 0.00 | 0.00 | 93 | 1025.8 |
| 20260902194102 | 56 | 154 | 0.0 | 0.0 | 0.00 | 0.00 | 0.00 | 92 | 1025.6 |
| 20260902193602 | 56 | 154 | 0.0 | 0.0 | 0.00 | 0.00 | 0.00 | 92 | 1025.4 |
| 20260902193102 | 56 | 154 | 0.0 | 0.0 | 0.00 | 0.00 | 0.00 | 91 | 1025.3 |
| 20260902192602 | 56 | 154 | 0.0 | 0.0 | 0.00 | 0.00 | 0.00 | 91 | 1025.4 |
| 20260902192100 | 56 | 154 | 0.0 | 0.0 | 0.00 | 0.00 | 0.00 | 91 | 1025.3 |
| 20260902191601 | 56 | 154 | 0.0 | 0.0 | 0.00 | 0.00 | 0.00 | 91 | 1025.3 |
| 20260902191101 | 56 | 154 | 0.0 | 0.0 | 0.00 | 0.00 | 0.00 | 90 | 1025.3 |
| 20260902190559 | 56 | 154 | 0.0 | 0.0 | 0.00 | 0.00 | 0.00 | 90 | 1025.1 |
| 20260902190107 | 56 | 154 | 0.0 | 0.0 | 0.00 | 0.00 | 0.00 | 91 | 1025.1 |
| 20260902185557 | 56 | 154 | 0.0 | 0.0 | 0.00 | 0.00 | 0.00 | 91 | 1025.0 |
| 20260902185050 | 56 | 154 | 0.0 | 0.0 | 0.00 | 0.00 | 0.00 | 91 | 1024.9 |
| 20260902184545 | 56 | 154 | 0.0 | 0.0 | 0.00 | 0.00 | 0.00 | 89 | 1024.7 |
| 20260902184038 | 56 | 154 | 0.0 | 0.0 | 0.00 | 0.00 | 0.00 | 90 | 1024.7 |
| 20260902183529 | 56 | 154 | 0.0 | 0.0 | 0.00 | 0.00 | 0.00 | 91 | 1024.5 |
| 20260902183251 | 56 | 154 | 0.0 | 0.0 | 0.00 | 0.00 | 0.00 | 89 | 1024.4 |
| 20260902182519 | 57 | 154 | 0.0 | 0.0 | 0.00 | 0.00 | 0.00 | 89 | 1024.4 |
| 20260902182017 | 57 | 154 | 0.0 | 0.0 | 0.00 | 0.00 | 0.00 | 90 | 1024.2 |
| 20260902181517 | 56 | 154 | 0.0 | 0.0 | 0.00 | 0.00 | 0.00 | 90 | 1024.2 |
| 20260902181015 | 56 | 154 | 0.0 | 0.0 | 0.00 | 0.00 | 0.00 | 90 | 1024.2 |
| 20260902180516 | 57 | 154 | 0.0 | 0.0 | 0.00 | 0.00 | 0.00 | 89 | 1024.1 |
| 20260902180015 | 57 | 154 | 0.0 | 2.0 | 0.00 | 0.00 | 0.00 | 88 | 1024.1 |
| 20260902175513 | 58 | 154 | 1.0 | 2.0 | 0.00 | 0.00 | 0.00 | 87 | 1024.0 |
| 20260902175012 | 58 | 154 | 0.0 | 2.0 | 0.00 | 0.00 | 0.00 | 87 | 1024.0 |
| 20260902174513 | 58 | 154 | 0.0 | 2.0 | 0.00 | 0.00 | 0.00 | 87 | 1023.9 |
| 20260902174013 | 58 | 154 | 0.0 | 1.0 | 0.00 | 0.00 | 0.00 | 87 | 1023.7 |
| 20260902173738 | 58 | 154 | 0.0 | 2.0 | 0.00 | 0.00 | 0.00 | 87 | 1023.7 |
| 20260902173013 | 58 | 154 | 0.0 | 2.0 | 0.00 | 0.00 | 0.00 | 88 | 1023.7 |
| 20260902172513 | 58 | 154 | 0.0 | 2.0 | 0.00 | 0.00 | 0.00 | 89 | 1023.7 |
| 20260902172243 | 58 | 154 | 0.0 | 3.0 | 0.00 | 0.00 | 0.00 | 88 | 1023.6 |
| 20260902171512 | 58 | 154 | 0.0 | 3.0 | 0.00 | 0.00 | 0.00 | 87 | 1023.5 |
| 20260902171013 | 58 | 154 | 0.0 | 1.0 | 0.00 | 0.00 | 0.00 | 88 | 1023.5 |
| 20260902170524 | 58 | 154 | 0.0 | 2.0 | 0.00 | 0.00 | 0.00 | 88 | 1023.3 |
| 20260902170518 | 58 | 154 | 0.0 | 1.0 | 0.00 | 0.00 | 0.00 | 88 | 1023.3 |
| 20260902165514 | 59 | 154 | 0.0 | 2.0 | 0.00 | 0.00 | 0.00 | 87 | 1023.3 |
| 20260902165014 | 59 | 154 | 0.0 | 1.0 | 0.00 | 0.00 | 0.00 | 87 | 1023.3 |
| 20260902164515 | 59 | 154 | 0.0 | 0.0 | 0.00 | 0.00 | 0.00 | 88 | 1023.3 |
| 20260902164014 | 59 | 154 | 0.0 | 2.0 | 0.00 | 0.00 | 0.00 | 87 | 1023.3 |
| 20260902163512 | 59 | 154 | 0.0 | 2.0 | 0.00 | 0.00 | 0.00 | 86 | 1023.3 |
| 20260902163011 | 60 | 154 | 0.0 | 1.0 | 0.00 | 0.00 | 0.00 | 86 | 1023.3 |
| 20260902162510 | 60 | 154 | 0.0 | 2.0 | 0.00 | 0.00 | 0.00 | 85 | 1023.3 |
| 20260902162011 | 60 | 154 | 0.0 | 2.0 | 0.00 | 0.00 | 0.00 | 85 | 1023.2 |
| 20260902161510 | 60 | 154 | 0.0 | 5.0 | 0.00 | 0.00 | 0.00 | 86 | 1023.3 |
| 20260902161009 | 60 | 154 | 1.0 | 5.0 | 0.00 | 0.00 | 0.00 | 85 | 1023.3 |
| 20260902160507 | 61 | 154 | 1.0 | 5.0 | 0.00 | 0.00 | 0.00 | 83 | 1023.2 |
| 20260902160007 | 61 | 154 | 0.0 | 5.0 | 0.00 | 0.00 | 0.00 | 82 | 1023.2 |
| 20260902155502 | 61 | 154 | 0.0 | 1.0 | 0.00 | 0.00 | 0.00 | 84 | 1023.2 |
| 20260902155003 | 61 | 154 | 0.0 | 1.0 | 0.00 | 0.00 | 0.00 | 85 | 1023.3 |
| 20260902154732 | 62 | 154 | 0.0 | 1.0 | 0.00 | 0.00 | 0.00 | 83 | 1023.3 |
| 20260902154002 | 62 | 154 | 0.0 | 2.0 | 0.00 | 0.00 | 0.00 | 82 | 1023.3 |
| 20260902153503 | 62 | 154 | 0.0 | 2.0 | 0.00 | 0.00 | 0.00 | 81 | 1023.3 |
| 20260902153001 | 62 | 154 | 1.0 | 3.0 | 0.00 | 0.00 | 0.00 | 79 | 1023.3 |
| 20260902152458 | 62 | 154 | 1.0 | 3.0 | 0.00 | 0.00 | 0.00 | 79 | 1023.3 |
| 20260902152445 | 63 | 99 | 1.0 | 3.0 | 0.00 | 0.00 | 0.00 | 78 | 1023.2 |
| 20260902151457 | 63 | 236 | 1.0 | 3.0 | 0.00 | 0.00 | 0.00 | 71 | 1023.3 |
| 20260902150956 | 63 | 178 | 0.0 | 3.0 | 0.00 | 0.00 | 0.00 | 77 | 1023.3 |
| 20260902150454 | 63 | 0 | 1.0 | 5.0 | 0.00 | 0.00 | 0.00 | 78 | 1023.3 |
| 20260902145953 | 64 | 286 | 3.0 | 7.0 | 0.00 | 0.00 | 0.00 | 74 | 1023.3 |
| 20260902145452 | 65 | 165 | 3.0 | 8.0 | 0.00 | 0.00 | 0.00 | 70 | 1023.2 |
| 20260902144952 | 65 | 275 | 3.0 | 8.0 | 0.00 | 0.00 | 0.00 | 66 | 1023.3 |
| 20260902144452 | 65 | 223 | 3.0 | 5.0 | 0.00 | 0.00 | 0.00 | 70 | 1023.3 |
| 20260902143950 | 65 | 195 | 2.0 | 5.0 | 0.00 | 0.00 | 0.00 | 69 | 1023.3 |
| 20260902143450 | 65 | 242 | 2.0 | 9.0 | 0.00 | 0.00 | 0.00 | 73 | 1023.3 |
| 20260902142950 | 65 | 66 | 2.0 | 9.0 | 0.00 | 0.00 | 0.00 | 72 | 1023.3 |
| 20260902142451 | 65 | 202 | 1.0 | 5.0 | 0.00 | 0.00 | 0.00 | 74 | 1023.3 |
| 20260902141950 | 65 | 234 | 0.0 | 3.0 | 0.00 | 0.00 | 0.00 | 74 | 1023.5 |
| 20260902141448 | 65 | 246 | 0.0 | 3.0 | 0.00 | 0.00 | 0.00 | 74 | 1023.5 |
| 20260902141211 | 65 | 231 | 1.0 | 3.0 | 0.00 | 0.00 | 0.00 | 72 | 1023.5 |
| 20260902140445 | 65 | 231 | 1.0 | 3.0 | 0.00 | 0.00 | 0.00 | 70 | 1023.5 |
| 20260902135943 | 65 | 231 | 1.0 | 3.0 | 0.00 | 0.00 | 0.00 | 72 | 1023.5 |
| 20260902135935 | 65 | 209 | 1.0 | 4.0 | 0.00 | 0.00 | 0.00 | 70 | 1023.3 |
| 20260902134942 | 65 | 209 | 1.0 | 4.0 | 0.00 | 0.00 | 0.00 | 71 | 1023.3 |
| 20260902134437 | 66 | 219 | 2.0 | 5.0 | 0.00 | 0.00 | 0.00 | 65 | 1023.3 |
| 20260902133937 | 67 | 215 | 3.0 | 8.0 | 0.00 | 0.00 | 0.00 | 64 | 1023.3 |
| 20260902133436 | 67 | 227 | 4.0 | 9.0 | 0.00 | 0.00 | 0.00 | 62 | 1023.3 |
| 20260902133208 | 69 | 287 | 5.0 | 11.0 | 0.00 | 0.00 | 0.00 | 60 | 1023.3 |
| 20260902132436 | 69 | 321 | 5.0 | 11.0 | 0.00 | 0.00 | 0.00 | 58 | 1023.3 |
| 20260902131936 | 69 | 257 | 5.0 | 9.0 | 0.00 | 0.00 | 0.00 | 57 | 1023.3 |
| 20260902131706 | 70 | 254 | 5.0 | 10.0 | 0.00 | 0.00 | 0.00 | 55 | 1023.5 |
| 20260902131208 | 69 | 255 | 5.0 | 10.0 | 0.00 | 0.00 | 0.00 | 55 | 1023.5 |
| 20260902130436 | 69 | 273 | 5.0 | 10.0 | 0.00 | 0.00 | 0.00 | 58 | 1023.5 |
| 20260902130204 | 69 | 309 | 4.0 | 12.0 | 0.00 | 0.00 | 0.00 | 58 | 1023.5 |
| 20260902125439 | 69 | 295 | 3.0 | 12.0 | 0.00 | 0.00 | 0.00 | 59 | 1023.3 |
| 20260902124936 | 68 | 302 | 1.0 | 3.0 | 0.00 | 0.00 | 0.00 | 67 | 1023.6 |
| 20260902124436 | 69 | 302 | 1.0 | 3.0 | 0.00 | 0.00 | 0.00 | 61 | 1023.6 |
| 20260902124209 | 68 | 302 | 0.0 | 3.0 | 0.00 | 0.00 | 0.00 | 63 | 1023.6 |
| 20260902123705 | 67 | 302 | 0.0 | 3.0 | 0.00 | 0.00 | 0.00 | 77 | 1023.7 |
| 20260902123203 | 65 | 302 | 0.0 | 0.0 | 0.00 | 0.00 | 0.00 | 81 | 1023.8 |
| 20260902122705 | 65 | 302 | 0.0 | 0.0 | 0.00 | 0.00 | 0.00 | 83 | 1023.8 |
| 20260902121934 | 65 | 302 | 0.0 | 0.0 | 0.00 | 0.00 | 0.00 | 82 | 1023.8 |
| 20260902121921 | 65 | 302 | 1.0 | 2.0 | 0.00 | 0.00 | 0.00 | 82 | 1023.8 |
| 20260902120934 | 65 | 302 | 1.0 | 3.0 | 0.00 | 0.00 | 0.00 | 79 | 1023.8 |
| 20260902120434 | 64 | 302 | 1.0 | 3.0 | 0.00 | 0.00 | 0.00 | 79 | 1023.9 |
| 20260902115934 | 64 | 302 | 0.0 | 2.0 | 0.00 | 0.00 | 0.00 | 82 | 1023.9 |
| 20260902115434 | 64 | 302 | 0.0 | 2.0 | 0.00 | 0.00 | 0.00 | 83 | 1023.9 |
| 20260902114934 | 64 | 302 | 0.0 | 2.0 | 0.00 | 0.00 | 0.00 | 84 | 1024.0 |
| 20260902114439 | 64 | 302 | 0.0 | 2.0 | 0.00 | 0.00 | 0.00 | 81 | 1024.0 |
| 20260902113939 | 63 | 302 | 1.0 | 2.0 | 0.00 | 0.00 | 0.00 | 81 | 1024.0 |
| 20260902113437 | 63 | 302 | 0.0 | 2.0 | 0.00 | 0.00 | 0.00 | 79 | 1024.1 |
| 20260902113200 | 63 | 302 | 0.0 | 1.0 | 0.00 | 0.00 | 0.00 | 83 | 1024.2 |
| 20260902112705 | 63 | 302 | 0.0 | 1.0 | 0.00 | 0.00 | 0.00 | 81 | 1024.2 |
| 20260902111933 | 63 | 302 | 0.0 | 3.0 | 0.00 | 0.00 | 0.00 | 81 | 1024.2 |
| 20260902111432 | 63 | 302 | 0.0 | 3.0 | 0.00 | 0.00 | 0.00 | 81 | 1024.4 |
| 20260902110932 | 63 | 302 | 0.0 | 2.0 | 0.00 | 0.00 | 0.00 | 79 | 1024.2 |
| 20260902110432 | 64 | 302 | 1.0 | 2.0 | 0.00 | 0.00 | 0.00 | 78 | 1024.2 |
| 20260902105932 | 64 | 302 | 1.0 | 3.0 | 0.00 | 0.00 | 0.00 | 75 | 1024.2 |
| 20260902105432 | 65 | 302 | 2.0 | 4.0 | 0.00 | 0.00 | 0.00 | 72 | 1024.4 |
| 20260902104931 | 67 | 302 | 2.0 | 4.0 | 0.00 | 0.00 | 0.00 | 66 | 1024.4 |
| 20260902104432 | 67 | 286 | 2.0 | 4.0 | 0.00 | 0.00 | 0.00 | 68 | 1024.5 |
| 20260902103931 | 69 | 248 | 2.0 | 5.0 | 0.00 | 0.00 | 0.00 | 61 | 1024.4 |
| 20260902103429 | 69 | 310 | 2.0 | 5.0 | 0.00 | 0.00 | 0.00 | 63 | 1024.6 |
| 20260902103203 | 69 | 285 | 3.0 | 7.0 | 0.00 | 0.00 | 0.00 | 62 | 1024.5 |
| 20260902102429 | 68 | 295 | 3.0 | 8.0 | 0.00 | 0.00 | 0.00 | 62 | 1024.6 |
| 20260902101929 | 69 | 325 | 2.0 | 8.0 | 0.00 | 0.00 | 0.00 | 58 | 1024.7 |
| 20260902101429 | 68 | 318 | 2.0 | 7.0 | 0.00 | 0.00 | 0.00 | 65 | 1024.7 |
| 20260902100929 | 68 | 279 | 3.0 | 9.0 | 0.00 | 0.00 | 0.00 | 62 | 1024.7 |
| 20260902100429 | 69 | 292 | 4.0 | 10.0 | 0.00 | 0.00 | 0.00 | 62 | 1024.7 |
| 20260902100205 | 68 | 305 | 5.0 | 10.0 | 0.00 | 0.00 | 0.00 | 67 | 1024.7 |
| 20260902095429 | 68 | 311 | 5.0 | 10.0 | 0.00 | 0.00 | 0.00 | 66 | 1024.8 |
| 20260902095155 | 68 | 313 | 4.0 | 10.0 | 0.00 | 0.00 | 0.00 | 68 | 1024.8 |
| 20260902094429 | 68 | 327 | 4.0 | 10.0 | 0.00 | 0.00 | 0.00 | 64 | 1024.7 |
| 20260902093929 | 67 | 288 | 5.0 | 11.0 | 0.00 | 0.00 | 0.00 | 67 | 1024.8 |
| 20260902093432 | 67 | 320 | 4.0 | 11.0 | 0.00 | 0.00 | 0.00 | 70 | 1024.9 |
| 20260902092930 | 67 | 323 | 4.0 | 11.0 | 0.00 | 0.00 | 0.00 | 70 | 1024.9 |
| 20260902092653 | 67 | 313 | 5.0 | 12.0 | 0.00 | 0.00 | 0.00 | 69 | 1024.9 |
| 20260902091931 | 66 | 321 | 7.0 | 12.0 | 0.00 | 0.00 | 0.00 | 70 | 1024.8 |
| 20260902091430 | 66 | 323 | 7.0 | 10.0 | 0.00 | 0.00 | 0.00 | 72 | 1024.9 |
| 20260902090930 | 65 | 320 | 5.0 | 10.0 | 0.00 | 0.00 | 0.00 | 72 | 1024.8 |
| 20260902090432 | 65 | 290 | 5.0 | 9.0 | 0.00 | 0.00 | 0.00 | 73 | 1024.8 |
| 20260902085930 | 65 | 317 | 5.0 | 9.0 | 0.00 | 0.00 | 0.00 | 72 | 1024.9 |
| 20260902085653 | 65 | 342 | 3.0 | 9.0 | 0.00 | 0.00 | 0.00 | 70 | 1024.9 |
| 20260902084929 | 65 | 294 | 2.0 | 5.0 | 0.00 | 0.00 | 0.00 | 73 | 1024.9 |
| 20260902084429 | 65 | 315 | 1.0 | 3.0 | 0.00 | 0.00 | 0.00 | 75 | 1025.0 |
| 20260902083929 | 64 | 279 | 1.0 | 3.0 | 0.00 | 0.00 | 0.00 | 76 | 1024.9 |
| 20260902083430 | 64 | 311 | 1.0 | 4.0 | 0.00 | 0.00 | 0.00 | 74 | 1025.0 |
| 20260902082930 | 63 | 311 | 2.0 | 4.0 | 0.00 | 0.00 | 0.00 | 74 | 1025.0 |
| 20260902082431 | 63 | 313 | 2.0 | 4.0 | 0.00 | 0.00 | 0.00 | 78 | 1025.0 |
| 20260902081930 | 62 | 312 | 2.0 | 4.0 | 0.00 | 0.00 | 0.00 | 77 | 1025.1 |